sat.trackr.live / text

‹ back to catalog

GPS BIIF-11 (PRN 10)

NORAD 41019 · 2015-062A

PAYLOAD ACTIVE UNKNOWN

§ Identity

Operator
Country
US
Launch date
2015-10-31
Launch site
AFETR
Launch vehicle
Mass (kg)
RCS (m²)
15.92

Purposes: earth_obs, nav

External: N2YO · Heavens-Above · Gunter

§ Orbital elements

Epoch: 2026-09-19T12:11:21.299424Z

Period
717.96 min
Inclination
57.0198°
Eccentricity
0.0116217
Mean motion
2.00567094 rev/d
Perigee alt
19,873.2 km
Apogee alt
20,490.6 km
Semi-major
26,560.0 km
B*
0.0000e+0
RAAN
27.1858°
Arg perigee
231.1367°
Mean anomaly
127.8323°
Rev number
7,972

§ Raw data

GPS BIIF-11 (PRN 10)1 41019U 15062A   26262.50788541 -.00000072  00000+0  00000+0 0  99932 41019  57.0198  27.1858 0116217 231.1367 127.8323  2.00567094 79723

JSON: /api/v1/satellites/41019 · /tle

For live sub-satellite position, see the globe view (requires WebGL).

§ Visibility from observer

Set your observer location to see the next 7 days of passes ≥ 10°. The values pass through the URL so the page stays shareable.

No JS? Fill the form by hand. The geolocation button needs JavaScript.